Location: Nebula Knoll Observatory
(43.6666°N, 71.0000°W)
Time: 16:33:55
(UTC-04:00)

Daily predictions for brighter satellites

Satellite Brightness Start Highest point End
(mag) Time Altitude Azimuth Time Altitude Azimuth Time Altitude Azimuth
Timation 1 Rocket 4.4 19:25:35 10° SSW 19:31:35 77° ESE 19:37:37 10° NNE
In-Cosmos 22 4.2 19:29:07 10° NNW 19:34:27 85° W 19:39:43 10° S
Cosmos 1544 3.0 19:31:48 10° S 19:35:25 69° E 19:39:07 10° NNE
CZ-3B DEB 3.5 19:24:43 10° WSW 19:35:55 59° NW 19:41:04 10° NE
FREGAT/IRIS 2.9 19:32:55 10° S 19:35:58 72° W 19:39:02 10° NNW
Cosmos-2242 3.8 19:34:12 10° SSE 19:37:55 30° E 19:41:39 10° NNE
Cosmos 1766 Rocket 3.8 19:39:02 10° N 19:43:25 49° ENE 19:47:45 10° SSE
Cosmos 1758 3.2 19:40:23 10° S 19:44:20 74° E 19:48:21 10° NNE
HJ-1C 3.4 19:43:13 10° SSE 19:46:38 86° ENE 19:50:05 10° N
Cosmos 2369 Rocket 3.8 19:44:23 10° ESE 19:46:39 13° E 19:48:55 10° ENE
FENGYUN 3A 3.7 19:41:23 10° SSE 19:46:48 89° ENE 19:52:13 10° NNW
Cosmos 1953 2.3 19:45:06 10° S 19:49:09 77° E 19:53:13 10° NNE
Lacrosse 5 3.5 19:47:24 10° W 19:52:00 34° NNW 19:56:37 10° NE
Cosmos 1833 Rocket 2.8 19:49:51 10° NNW 19:55:31 85° WSW 20:01:09 10° SSE
GP-B 3.4 19:54:39 10° SSE 19:58:54 47° E 20:03:10 10° N
Cosmos 2344 4.5 19:54:50 10° WSW 20:02:23 56° NW 20:11:14 10° NE
ATLAS 5 CENTAUR R/B 1.8 20:00:01 10° SW 20:04:43 88° ESE 20:09:53 10° NE
CZ-2D R/B 3.2 20:01:41 10° SSE 20:05:31 70° ENE 20:09:25 10° N
Cosmos 1939 Rocket 4.1 20:04:26 15° ESE 20:06:58 25° ENE 20:10:25 10° NNE
Cosmos 482 Debris 2.2 20:05:13 10° WNW 20:07:02 89° SW 20:07:45 30° SE
Lacrosse 5 rocket 1.5 20:03:08 10° NW 20:07:03 62° SW 20:10:29 12° SSE
Cosmos 158 Rocket 4.3 20:02:05 10° NNW 20:07:14 72° WSW 20:12:29 10° S
USA 215 4.4 20:03:14 10° E 20:07:30 18° ESE 20:11:44 10° SSE
Meteor 1-29 4.0 20:04:39 10° NE 20:07:37 25° E 20:10:33 10° SSE
Cosmos 1805 4.5 20:04:22 10° SSW 20:08:07 46° WNW 20:11:54 10° N
ALOS 3.2 20:03:45 10° S 20:08:18 52° W 20:12:54 10° NNW
Cosmos 372 Rocket 4.1 20:04:11 10° SSW 20:09:18 80° WNW 20:14:31 10° NNE
Cosmos 2278 Rocket 4.1 20:06:05 10° WSW 20:11:10 33° NW 20:16:17 10° N
Resurs 01 Rocket 1.8 20:07:19 10° S 20:11:43 74° WSW 20:16:10 10° NNW
Cosmos 1743 Rocket 3.8 20:09:54 10° N 20:14:15 49° ENE 20:18:34 10° SSE
Cosmos 1500 Rocket 4.1 20:10:27 10° N 20:14:27 35° ENE 20:17:18 17° SE
Cosmos 1733 3.1 20:12:05 10° S 20:15:55 74° E 20:19:49 10° NNE
CZ-4C R/B 3.2 20:12:22 10° SSE 20:16:19 22° ESE 20:20:36 10° ENE
USA 186 0.7 20:16:04 25° SSE 20:17:07 64° ENE 20:19:20 10° N
Spot 1 4.4 20:13:03 10° SSE 20:17:47 65° ENE 20:22:46 10° N
Helios 1B rocket 2.6 20:14:40 10° NNE 20:18:40 47° E 20:22:38 10° S
Cosmos 2251 Rocket 3.7 20:14:03 10° NNW 20:19:18 54° ENE 20:23:30 16° SE
COSMOS 2487 4.4 20:17:10 10° NW 20:20:21 31° WSW 20:23:33 10° SSW
BREEZE-M DEB (TANK) 3.0 20:19:01 10° NW 20:21:10 35° NNE 20:22:26 22° ENE
Cosmos 2151 3.8 20:18:51 10° NNE 20:22:39 31° ENE 20:24:19 23° ESE
Cosmos 2100 Rocket 4.0 20:16:49 10° S 20:23:08 78° E 20:29:32 10° N
Gblst 52 Del rocket 4.5 20:20:13 10° SSW 20:25:59 46° SE 20:30:40 13° ENE
Cosmos 1470 3.0 20:24:14 10° SSW 20:28:12 75° W 20:32:11 10° N
SAR-Lupe-4 3.5 20:27:03 11° SSE 20:30:26 88° WSW 20:34:02 10° NNW
Tsikada Rocket 4.3 20:31:21 10° N 20:37:19 46° ENE 20:41:02 22° SE
Cosmos 494 Rocket 3.9 20:32:12 10° NNW 20:37:20 78° ENE 20:40:57 20° SSE
YAOGAN 6 3.6 20:37:47 28° ENE 20:37:56 28° ENE 20:41:11 10° N
Cosmos 2082 Rocket 3.8 20:34:49 10° NW 20:39:52 34° WSW 20:44:53 10° SSW
OAO 2 Rocket 4.5 20:36:28 10° SW 20:40:45 27° SSE 20:41:53 24° SE
Cosmos 1184 Rocket 3.1 20:43:31 10° NNW 20:46:54 69° W 20:48:38 26° S
Cosmos 1340 Rocket 3.9 20:44:41 10° NNW 20:48:31 43° W 20:52:16 10° SSW
Cosmos 1802 Rocket 4.0 20:43:18 10° S 20:49:27 85° W 20:55:41 10° N
Helios 1A 3.5 20:45:49 10° S 20:49:52 58° WSW 20:54:02 10° NNW
Cosmos 1842 Rocket 3.4 20:46:12 10° S 20:50:36 85° E 20:55:00 10° N
CZ-4B DEB 2.9 20:49:47 36° S 20:50:52 67° W 20:53:57 10° NNW
Cosmos 389 Rocket 2.3 20:52:52 42° S 20:53:55 76° E 20:57:27 10° NNE
SeaSat 1 4.1 20:51:58 10° S 20:56:18 30° WSW 21:00:38 10° NW
Meteor 1-16 Rocket 4.3 20:51:05 10° S 20:56:58 86° E 21:02:57 10° N
Envisat 3.0 20:54:15 18° S 20:58:04 80° WSW 21:03:11 10° NNW
Cosmos 1356 Rocket 3.5 20:54:44 10° NNW 20:58:49 72° W 21:00:45 29° S
Meteor 1-11 4.1 20:58:15 10° N 21:03:51 89° W 21:07:16 25° S
ERS-1 Rocket 2.9 21:03:09 42° SE 21:04:42 65° ENE 21:09:42 10° N
ISS -2.1 21:01:59 10° W 21:04:57 31° NNW 21:06:01 25° NNE
SL-14 R/B 3.7 21:02:18 10° NNW 21:06:08 60° W 21:07:46 31° SSW
Geosat 4.2 21:03:31 10° NNE 21:08:33 73° WNW 21:13:32 10° SW
Cosmos 2233 Rocket 4.0 21:12:07 40° SE 21:13:59 54° E 21:19:57 10° NNE
Cosmos 1626 3.0 21:12:56 10° N 21:15:34 39° NNE 21:15:34 39° NNE
Sich 1 4.2 21:15:34 10° N 21:18:27 30° NE 21:18:27 30° NE
Cosmos 1864 Rocket 4.5 21:14:31 10° S 21:20:52 85° W 21:27:12 10° N
MetOp-B 4.1 21:20:38 56° ESE 21:21:18 60° ENE 21:26:36 10° N
H-2A R/B 3.1 21:28:33 32° NE 21:28:33 32° NE 21:32:36 10° N
YAOGAN 11 4.1 21:29:48 73° NE 21:29:48 73° NE 21:34:06 10° N
Cosmos 2369 Rocket 2.1 21:24:10 10° SSW 21:29:48 90° ESE 21:35:27 10° NNE
Cosmos 1633 Rocket 4.4 21:26:00 10° N 21:28:39 29° NNE 21:28:39 29° NNE
Meteor 2-1 Rocket 4.2 21:27:08 21° SSW 21:31:04 84° W 21:36:44 10° N
Cosmos 2058 3.5 21:28:46 10° NNW 21:32:49 52° W 21:33:13 50° WSW
Cosmos 2221 2.6 21:33:22 71° N 21:33:22 71° N 21:37:20 10° N
Cosmos 1703 3.9 21:31:42 10° NNW 21:34:51 53° NNW 21:34:51 53° NNW
Lacrosse 5 4.2 21:32:50 10° NW 21:36:19 18° N 21:39:48 10° NE
Terra 3.7 21:39:38 19° NE 21:39:38 19° NE 21:41:41 10° NNE
Cosmos 1833 4.4 21:33:25 10° NNW 21:38:53 55° ENE 21:38:53 55° ENE
SPOT 5 3.0 21:40:47 76° ENE 21:40:47 76° ENE 21:46:05 10° N
Cosmos 2227 Rocket 4.4 21:42:58 10° NNE 21:44:58 12° NE 21:45:24 12° NE
Cosmos 1943 Rocket 3.2 21:48:52 33° NE 21:48:52 33° NE 21:51:58 10° NNE
CZ-3B DEB 3.7 21:42:53 10° WNW 21:47:39 21° NNW 21:49:27 16° NNE
ATLAS 5 CENTAUR R/B 4.4 21:46:33 10° WNW 21:50:11 20° NNW 21:54:03 10° NNE
NOAA 11 4.1 21:49:56 75° SSW 21:50:19 80° WSW 21:55:51 10° NNW
H-2A R/B 4.1 21:53:31 19° NNE 21:53:31 19° NNE 21:54:56 10° N
USA 215 3.1 21:44:42 10° NE 21:51:14 71° SE 21:57:44 10° SW
Cosmos 2263 4.1 21:52:39 68° SW 21:53:24 83° WNW 21:59:06 10° NNE
Cosmos 1805 Rocket 4.4 21:52:09 10° NNW 21:55:42 50° NW 21:55:42 50° NW
CZ-4C R/B 2.6 21:58:54 10° SW 22:04:10 60° NW 22:10:12 10° NNE
Cosmos 1464 Rocket 4.5 22:07:00 48° NE 22:07:00 48° NE 22:11:42 10° NNE
SPOT 1/Viking Rocket 4.1 22:13:12 57° NNW 22:13:12 57° NNW 22:17:21 10° NNW
ARGOS 3.6 22:17:29 56° WNW 22:17:29 56° WNW 22:22:12 10° NNW
USA 267 3.5 22:24:10 59° NE 22:24:18 59° NNE 22:30:42 10° NW
Cosmos 2219 4.2 22:24:23 10° NNW 22:28:11 40° N 22:28:11 40° N
Cosmos 2297 Rocket 4.1 22:58:30 10° N 23:01:13 23° NNE 23:01:13 23° NNE
H-2A R/B 3.9 23:09:10 27° WNW 23:09:10 27° WNW 23:12:05 10° NNW
Terra 4.3 23:18:31 19° NW 23:18:31 19° NW 23:20:01 10° NNW
ATLAS 3B R/B 3.6 23:20:37 44° NNE 23:20:37 44° NNE 23:25:22 10° NNE
Lacrosse 5 4.3 23:16:52 10° NW 23:19:04 19° NNW 23:19:04 19° NNW
Cosmos 2227 Rocket 4.0 23:24:43 10° NNW 23:27:14 26° N 23:27:14 26° N
Cosmos 1943 Rocket 4.2 23:30:16 22° NW 23:30:38 22° NW 23:35:01 10° N
USA 215 4.1 23:27:54 10° NE 23:34:02 45° NNW 23:40:09 10° W
